STARLILNK-35985

导读

STARLINK-35985是美国于2025年12月1日发射的Starlink星链卫星,星链是SpaceX打造的低轨卫星互联网星座,该卫星旨在为全球偏远地区、海上及航空场景等提供高速低延迟的宽带互联网接入服务,进一步扩充星链星座的在轨卫星规模,提升全球网络覆盖能力与服务稳定性。

Basic Information
目录编号:
66815
目录名称:
STARLINK-35985
国际标识:
2025-278AA
轨道中心:
EARTH
卫星名称:
STARLINK-35985
卫星全名:
STARLILNK-35985
卫星状态:
在轨 (已飞行277 天)
发射日期:
2025-12-01 UTC
国别 :
美国 (US)
星等 :
--
Orbit Information
数据来源 国际轨道数据 AOE轨道数据
星历时间 2026-09-03T13:47:30+0800
23小时前
查看轨道信息
2026-09-04T00:00:00+0800
13小时前
查看轨道信息
半长轴 6861.146km 6861.155km
偏心率 0.0001394 0.000045
轨道倾角 43.002° 43.001°
近地点辐角 268.655° 175.999°
升交点赤经 191.615° 189.215°
平近点角 91.414° 5.944°
近地点 482.052km 482.709km
远地点 483.966km 483.327km
周期 94.266分钟 94.266分钟
每日圈数 15.275936 15.275907
Detailed Information
使用方式:
暂无
2D Orbit Map
3D Orbit Map
Orbit Altitude Analysis Chart
Orbit Inclination Analysis Chart
Orbit Comprehensive Analysis Chart
View Comprehensive Chart
Conjunction Data List
Event ID Objects TCA Miss Dist (km) Collision Risk Probability Collision Risk Index (CRI) Action
CDM_260905-002705-915206-681521
2026-09-05T
00:27:20+0000
0.936 km
远距离
1.602957E-5 中风险 0.59
CDM_260905-065705-932806-681521
2026-09-05T
06:57:07+0000
1.113 km
极远距离
1.012959E-5 中风险 0.55
CDM_260905-083105-932806-681521
2026-09-05T
08:31:16+0000
1.361 km
极远距离
5.107643E-6 低风险 0.49
CDM_260904-005106-217806-681521
2026-09-04T
00:51:04+0000
1.597 km
极远距离
4.573095E-6 低风险 0.48
CDM_260903-231606-217806-681521
2026-09-03T
23:16:53+0000
2.927 km
极远距离
1.183119E-6 低风险 0.36
CDM_260904-225305-915206-681521
2026-09-04T
22:53:11+0000
2.576 km
极远距离
8.97973E-7 极低风险 0.34
CDM_260905-020105-915206-681521
2026-09-05T
02:01:29+0000
2.676 km
极远距离
8.488352E-7 极低风险 0.34